This demonstration page uses our WeatherBlox Daily Observations layout. Learn more.

Left ArrowRight Arrow

Hourly Observations for June 7, 2018

Temp ( °F °C ) Dew Point ( °F °C ) Humidity (%) Winds ( mph kmh ) Pressure ( in mb ) Visibility ( mi km ) Precip ( " mm )
12:53 am 00:53 Clear 57 13.9 46 7.8 67 67 NNW 3 6 29.80 1009 10 16 0.00 0.00
1:53 am 01:53 Clear 54 12.2 44 6.7 69 69 Calm 29.80 1009 10 16 0.00 0.00
2:53 am 02:53 Clear 56 13.3 47 8.3 72 72 Calm 29.78 1009 10 16 0.00 0.00
3:53 am 03:53 Clear 54 12.2 46 7.8 75 75 E 6 9 29.79 1009 10 16 0.00 0.00
4:53 am 04:53 Clear 52 11.1 45 7.2 77 77 ENE 6 9 29.81 1010 10 16 0.00 0.00
5:53 am 05:53 Sunny 54 12.2 45 7.2 72 72 NE 3 6 29.81 1010 10 16 0.00 0.00
6:53 am 06:53 Sunny 56 13.3 46 7.8 70 70 ENE 7 11 29.81 1010 10 16 0.00 0.00
7:53 am 07:53 Sunny 61 16.1 48 8.9 63 63 ENE 9 15 29.82 1010 10 16 0.00 0.00
8:53 am 08:53 Sunny 66 18.9 50 10 56 56 ENE 10 17 29.80 1009 10 16 0.00 0.00
9:53 am 09:53 Sunny 70 21.1 53 11.7 55 55 ENE 7 11 29.82 1010 10 16 0.00 0.00
10:53 am 10:53 Sunny 76 24.4 55 12.8 48 48 E 8 13 29.79 1009 10 16 0.00 0.00
11:53 am 11:53 Partly Cloudy 74 23.3 57 13.9 56 56 E 10 17 29.81 1009 10 16 0.00 0.00
12:53 pm 12:53 Mostly Sunny 71 21.7 57 13.9 61 61 ESE 6 9 29.82 1010 10 16 0.00 0.00
1:35 pm 13:35 Cloudy with Nearby Thunderstorms 65 18.3 55 12.8 70 70 SW 21 33 29.80 1009 10 16 0.00 0.00
1:53 pm 13:53 Cloudy with Thunderstorms 61 16.1 56 13.3 84 84 S 23 37 29.87 1011 10 16 0.00 0.00
2:35 pm 14:35 Cloudy with Nearby Thunderstorms 61 16.1 56 13.3 84 84 S 18 30 29.83 1010 10 16 0.02 0.51
2:53 pm 14:53 Cloudy with Nearby Thunderstorms 61 16.1 57 13.9 87 87 SSE 17 28 29.84 1011 6 10 0.03 0.76
3:06 pm 15:06 Cloudy with Rain 61 16.1 57 13.9 87 87 SE 16 26 29.77 1008 5 8 0.03 0.76
3:53 pm 15:53 Mostly Sunny 66 18.9 54 12.2 65 65 undefined N/A 29.84 1011 10 16 0.06 1.52
4:53 pm 16:53 Sunny 70 21.1 56 13.3 61 61 SE 13 20 29.81 1010 10 16 0.00 0.00
5:53 pm 17:53 Sunny 74 23.3 52 11.1 46 46 E 8 13 29.82 1010 10 16 0.00 0.00
6:53 pm 18:53 Sunny 71 21.7 53 11.7 53 53 E 14 22 29.83 1010 10 16 0.00 0.00
7:53 pm 19:53 Sunny 66 18.9 56 13.3 70 70 E 14 22 29.84 1010 10 16 0.00 0.00
8:53 pm 20:53 Sunny 64 17.8 56 13.3 75 75 ESE 13 20 29.83 1010 10 16 0.00 0.00
9:53 pm 21:53 Clear 62 16.7 56 13.3 80 80 ESE 9 15 29.85 1011 10 16 0.00 0.00
10:53 pm 22:53 Clear 61 16.1 54 12.2 78 78 ENE 5 7 29.84 1011 10 16 0.00 0.00
11:53 pm 23:53 Clear 59 15 52 11.1 78 78 S 9 15 29.84 1010 10 16 0.00 0.00

Powered by AerisWeather